Location: Bonaustraße
(48.4603°N, 11.9280°E)
Time: 03:55:24
(UTC+01:00)

Envisat - Pass Details

Date: 28 January 2021
Orbit: 764 x 766 km, 98.1° (Epoch: 05 March)

Event Time Altitude Azimuth Distance (km) Brightness Sun altitude
Rises 05:21:33 0° 20° (NNE) 3,244 6.5 -23.9°
Reaches altitude 10° 05:24:03 10° 29° (NNE) 2,313 5.8 -23.5°
Maximum altitude 05:28:44 36° 96° (E) 1,204 4.6 -22.8°
Drops below altitude 10° 05:33:22 10° 162° (SSE) 2,295 5.7 -22.0°
Sets 05:35:50 0° 171° (S) 3,216 6.4 -21.6°
